Вернуться в каталог

STARLINK-5580

АктивенСвязьVLEO
NORAD 55748·PAYLOAD·🇺🇸 United States

Запущен Mar 3, 2023 с Vandenberg Space Force Base

Loading…

Ближайшие Пролёты (ближайшие 24 часа)

TLE

СвежийSource: CelesTrak SupGP

Эпоха: Sep 15, 2026, 02:16 UTC

1 55748C 23028H   26258.09493056  .00028677  00000+0  24032-2 0  2583
2 55748  69.9998 126.9388 0002909 271.7174 325.7102 14.98316717    15

Отслеживайте STARLINK-5580 в реальном времени с AllMySat

Download on the App Store